Regional Weather Roundup
Issued by NWS Midland/Odessa, TX

Home | Current Version | Previous Version | Text Only | Print | Product List | Glossary On
Versions: 1 2 3 4 5 6 7 8 9 10 11 12 13 14 15 16 17 18 19 20 21 22 23 24 25 26 27 28 29 30 31 32 33 34 35 36 37 38 39 40 41 42 43 44 45 46 47 48 49 50
000
ASUS44 KMAF 231710
RWRMAF
MIDLAND AREA WEATHER ROUNDUP
NATIONAL WEATHER SERVICE MIDLAND TX
1200 PM CDT FRI JUN 23 2017

...IN SOUTHWEST TEXAS AND SOUTHEAST NEW MEXICO...

CITY           SKY/WX    TMP DP  RH WIND       PRES   REMARKS
ALPINE         SUNNY     97  47  17 NE8       30.03S
ANDREWS        FAIR      99  55  22 S13G20    29.88F
ARTESIA        SUNNY     91  55  29 NW10      29.93R
BIG SPRING     CLOUDY    96  58  27 S10       29.87F
CARLSBAD       SUNNY     94  55  26 NW9       29.87F
DRYDEN           N/A     93  64  38 E9        29.84S
FORT STOCKTON  CLOUDY    95  57  27 S10       29.84F
GUAD PASS      SUNNY     91  50  24 E25       30.04R
HOBBS          SUNNY     97  50  20 SE14      29.92S
MARFA          SUNNY     95  48  20 SE7       30.02S
MIDLAND AIRPK  SUNNY    100  54  21 S9G17     29.87R
MIDLAND INTL   SUNNY     99  55  23 S12       29.85S
ODESSA         SUNNY     99  52  20 S16G22    29.87S
PECOS          SUNNY    105  48  14 E13       29.80F HX 101
PRESIDIO       FAIR     100  51  18 N7        29.84F
SEMINOLE       SUNNY     98  53  21 S9        29.91R
SNYDER         SUNNY     92  60  34 S8        29.87R HAZE
WINK           SUNNY    104  48  15 S14G22    29.81S HX 100
$$
...OTHER STATIONS IN TEXAS...

CITY           SKY/WX    TMP DP  RH WIND       PRES   REMARKS
ABILENE        SUNNY     95  64  35 VRB6      29.82S
AMARILLO       MOSUNNY   76  61  59 N26G35    30.07R
AUSTIN         PTSUNNY   93  75  55 S10       29.80F HX 104
BROWNSVILLE    MOSUNNY   94  75  54 SE22G28   29.78S HX 105
CORPUS CHRISTI MOSUNNY   93  78  61 SE14      29.78S HX 108
DALLAS FTW     MOSUNNY   91  77  63 SE10      29.78S HX 104
DEL RIO        SUNNY     92  69  47 SE9       29.78R
EL PASO        MOSUNNY  100  36  11 N15       29.90R
HOUSTON INT    PTSUNNY   90  73  57 S12       29.85R
LUBBOCK        MOSUNNY   95  55  26 VRB6      29.94R
SAN ANGELO     SUNNY    102  60  25 S12G18    29.79F HX 103
SAN ANTONIO    MOSUNNY   92  72  51 VRB6      29.83S
WACO           SUNNY     92  74  55 S13       29.80S HX 101
WICHITA FALLS  NOT AVBL
$$
...OTHER LOCATIONS IN NEW MEXICO...

CITY           SKY/WX    TMP DP  RH WIND       PRES   REMARKS
ALAMOGORDO     SUNNY     97  37  12 N17       29.94S
ALBUQUERQUE    MOSUNNY   86  38  18 VRB3      30.10S
CANNON AFB     SUNNY     83  60  45 NE23G31   30.06R
CLOVIS         SUNNY     81  61  50 NE29G35   30.07R
HOLLOMAN AFB   SUNNY     98  38  12 N16G24    29.94S
ROSWELL        SUNNY     91  56  30 NE12      29.94R
RUIDOSO        SUNNY     84  34  16 N10       30.21R
SANTA FE       SUNNY     84  45  25 S10       30.17R
TRUTH OR CONSE SUNNY     96  30   9 NE12G18   30.03S
TUCUMCARI      SUNNY     81  59  47 NE25G32   30.08R
$$



USA.gov is the U.S. government's official web portal to all federal, state and local government web resources and services.